Location: ?????oe
(44.4874°N, 135.7046°E)
Time: 10:32:36
(UTC+00:00)

CZ-2D R/B - Pass Details

Date: 13 December 2025
Orbit: 396 x 403 km, 97.4° (Epoch: 21 January)

Event Time Altitude Azimuth Distance (km) Brightness Sun altitude
Rises 21:35:27 0° 11° (N) 2,384 6.4 -8.7°
Reaches altitude 10° 21:37:28 10° 10° (N) 1,515 5.4 -8.4°
Maximum altitude 21:40:42 78° 284° (WNW) 436 2.7 -7.9°
Drops below altitude 10° 21:43:54 10° 198° (SSW) 1,500 5.7 -7.4°
Sets 21:45:53 0° 196° (SSW) 2,357 6.7 -7.0°
